ATLAS 5 CENTAUR DEB, 44677

Orbit data source: Space-Track

ATLAS 5 CENTAUR DEB, 44677 is space debris in HEO originally from a launch on Wed, 17 Oct 2018 UTC launched from the Air Force Eastern Test Range (AFETR). Debris objects in space refer to the collection of defunct objects orbiting the Earth. Examples of debris include non-operational satellites, rocket bodies, and fragments generated from explosions, collisions, or faulty payload assembly.

Loading next visibility...
Identifier
44677, 2018-079AP
Orbit
HEO
Last TLE update
1 week ago
Origin
Flag of USUnited Launch Alliance/Lockheed Martin (US)
Manufacturer
ULA Decatur
Mission
Spacecraft
Bus & Motor
Unknown
Mass
Unknown
Launch date (UTC)
2018-10-17 (7 years ago)
Launch vehicle
Unknown
Launch site
Air Force Eastern Test Range (AFETR)
Object type
Payload
Rocket body
Debris
Shape & HBR
Unknown
Radar Cross Section
RCS unknown

Expand to show TLE details & history

TLE from 1 week ago
0 ATLAS 5 CENTAUR DEB
1 44677U 18079AP  25160.97550055 -.00000097  00000-0  00000-0 0  9990
2 44677  12.4741  85.0580 4444656 214.2357 106.7925  1.78533606 39137
Epoch: 2025-06-09T23:24Z
TLE epoch observation values (Epoch: 2025-06-09T23:24:43.247Z)
Latitude
0.00001°
Longitude
-164.79037°
Altitude
30,053.046 km
Speed
2.828 km/s
True Right ascension
05h 39m 52s
True Declination
0° 00' 00"
Sunlit
Object was in daylight at epoch
Visualization orbit readout
Latitude
7.01672°
Longitude
-131.56745°
Altitude
35,087.121 km
Speed
2.311 km/s
Apparent Right ascension
08h 06m 44s
Apparent Declination
1° 32' 13"
Sunlit
Object is in daylight
Visualization observer readout
Local Sidereal Time
06:03:36
Azimuth
136.041° SSE
Elevation
42.525°
Doppler factor
1
Orbital elements
Apogee altitude
35,084.733 km
Perigee altitude
9,568.28 km
Semi-major axis
28,704.644 km
Eccentricity
0.44447
Inclination
12.4741°
RAAN
85.058°
Arg. of periapsis
214.2357°
True anomaly
Unknown
Mean anomaly
106.7925°
Eccentric anomaly
Unknown
Mean motion
0.44629 °/min
Orbital period
806.65 mins
BSTAR
0
Loading maneuver chart data...
Loading SW <> Apogee altitude chart data...

ATLAS 5 CENTAUR DEB Visibility forecast

Observer location: undefined°, undefined°

Span
Click to sort rows by Start time (UTC) header in descending order
Start Az.
Max El. time (UTC)
Max El. Az.
Max El.
End time (UTC)
End Az.
350 mins2025-06-16 19:22:50.037Z136.056° SSE2025-06-16 22:19:50.037Z141.604° SSE37.496°2025-06-17 01:12:50.037Z108.003° ESE
154 mins2025-06-17 16:48:50.037Z221.568° SW2025-06-17 19:22:50.037Z194.933° SSW33.155°2025-06-17 19:22:50.037Z194.933° SSW
|